Total_Precipitation_Accumulation
0.92 0.85 0.72 0.73 0.68 0.71 0.78 0.83 0.86 0.92 0.98 0.94 0.91 0.93 0.96 0.92 0.83 0.81 1.01 1.33 1.85 2.25 2.26 2.14 1.94 1.87 1.81 1.63 1.63 1.81 2.01 2.11 2.09 2.04 2.13 2.22 2.15 2.00 1.91 1.83 1.83 1.74 1.62
0.84 0.87 0.83 0.82 0.82 0.80 0.80 0.78 0.78 0.92 0.98 1.03 1.01 0.98 0.96 0.85 0.84 0.91 1.08 1.16 1.26 1.66 2.35 2.55 2.38 2.20 2.07 1.81 1.71 1.83 1.96 1.99 1.93 1.96 2.01 2.03 1.93 1.72 1.62 1.74 1.91 1.70 1.52
0.77 0.83 0.86 0.87 0.87 0.87 0.86 0.88 0.89 0.99 1.01 1.10 1.13 0.99 0.92 0.88 0.84 0.90 0.99 1.09 0.91 0.97 1.53 2.18 2.41 2.29 2.27 2.12 1.89 1.87 1.94 1.98 1.86 1.98 1.98 1.96 1.80 1.67 1.54 1.71 1.87 1.78 1.58
0.76 0.85 0.89 0.91 0.96 0.88 0.86 0.96 1.03 1.12 1.13 1.20 1.23 1.05 0.87 0.96 0.90 0.90 1.03 1.06 1.04 0.96 1.12 1.38 1.69 1.93 2.32 2.50 2.30 2.13 2.02 1.92 1.77 1.87 1.91 1.85 1.70 1.63 1.54 1.70 1.75 1.76 1.73
0.94 1.02 1.07 1.08 1.09 1.11 1.04 0.96 1.01 1.15 1.27 1.31 1.16 1.07 0.96 0.97 0.99 0.96 1.14 1.16 1.15 1.14 1.20 1.12 1.17 1.38 1.86 2.32 2.47 2.40 2.16 1.87 1.69 1.72 1.72 1.60 1.65 1.65 1.52 1.58 1.62 1.66 1.73
1.21 1.32 1.32 1.25 1.31 1.41 1.46 1.26 1.32 1.29 1.27 1.36 1.19 1.13 1.10 1.05 1.05 1.11 1.16 1.29 1.42 1.27 1.27 1.21 1.12 0.98 1.25 1.66 2.03 2.36 2.40 2.21 1.92 1.78 1.81 1.56 1.50 1.59 1.51 1.45 1.51 1.59 1.62
1.54 1.73 1.71 1.67 1.68 1.68 1.65 1.59 1.75 1.70 1.44 1.35 1.56 1.55 1.39 1.21 1.16 1.16 1.22 1.46 1.57 1.49 1.51 1.44 1.32 1.16 1.05 1.07 1.34 2.00 2.41 2.54 2.38 2.10 2.04 1.85 1.53 1.43 1.42 1.42 1.47 1.57 1.61
1.77 1.82 2.03 2.13 2.10 2.24 2.22 2.03 2.18 2.21 1.83 1.59 1.87 2.21 1.93 1.70 1.29 1.20 1.33 1.39 1.49 1.57 1.62 1.49 1.34 1.24 1.20 1.14 1.00 1.41 1.80 2.28 2.51 2.30 2.32 2.29 1.77 1.46 1.34 1.34 1.41 1.48 1.60
1.93 1.96 2.09 2.25 2.25 2.34 2.47 2.54 2.47 2.58 2.39 1.99 1.86 2.18 2.12 1.97 1.76 1.41 1.35 1.44 1.59 1.65 1.68 1.66 1.49 1.25 1.22 1.27 1.09 1.03 1.23 1.51 2.05 2.32 2.42 2.56 2.12 1.64 1.36 1.32 1.35 1.34 1.49
2.12 2.22 2.26 2.37 2.37 2.37 2.49 2.59 2.54 2.69 2.78 2.40 2.08 1.88 1.73 1.74 1.89 1.73 1.50 1.46 1.61 1.63 1.63 1.65 1.68 1.51 1.34 1.37 1.25 1.02 1.03 1.13 1.48 2.04 2.32 2.56 2.41 1.89 1.49 1.41 1.45 1.40 1.47
2.22 2.27 2.36 2.54 2.51 2.49 2.48 2.67 2.71 2.81 2.74 2.67 2.52 2.35 2.19 1.95 1.64 1.77 1.82 1.68 1.57 1.46 1.51 1.63 1.79 1.74 1.56 1.49 1.56 1.23 1.00 1.00 1.13 1.64 2.04 2.51 2.62 2.26 1.96 1.83 1.69 1.59 1.44
2.26 2.15 2.09 2.26 2.33 2.36 2.35 2.54 2.70 2.83 2.81 2.83 2.76 2.47 2.42 2.30 1.99 1.95 1.82 1.70 1.72 1.53 1.44 1.52 1.58 1.58 1.60 1.56 1.47 1.43 1.13 0.98 1.03 1.29 1.66 2.05 2.51 2.47 2.38 2.32 2.09 1.98 1.79
2.09 2.13 2.02 2.03 2.07 2.03 2.06 2.19 2.26 2.33 2.46 2.62 2.54 2.33 2.29 2.14 2.13 2.19 2.09 1.86 1.69 1.44 1.45 1.44 1.42 1.42 1.42 1.47 1.52 1.56 1.19 0.98 0.98 1.09 1.37 1.61 1.97 2.30 2.49 2.43 2.32 2.33 2.26
1.79 1.87 1.87 1.81 1.87 1.93 1.91 2.02 2.06 2.07 2.09 2.16 2.14 2.24 2.30 2.16 2.10 2.07 2.12 2.28 2.04 1.78 1.59 1.44 1.42 1.45 1.41 1.39 1.53 1.57 1.24 1.09 0.97 0.94 1.07 1.30 1.58 1.96 2.22 2.26 2.31 2.44 2.45
1.36 1.42 1.51 1.58 1.67 1.74 1.79 1.94 2.04 2.05 2.00 1.97 2.06 2.14 2.09 2.07 2.07 1.98 1.96 2.12 2.23 2.06 1.89 1.70 1.55 1.48 1.50 1.41 1.49 1.33 1.28 1.21 1.06 1.01 1.03 0.99 1.13 1.45 1.68 1.86 2.03 2.05 2.19
1.05 1.09 1.18 1.36 1.59 1.71 1.74 1.82 1.90 2.00 2.01 1.97 2.05 2.17 2.20 2.18 2.20 2.14 2.02 2.00 1.96 2.00 1.91 1.70 1.51 1.43 1.54 1.40 1.50 1.31 1.25 1.40 1.21 1.13 1.05 0.93 0.91 1.00 1.13 1.32 1.57 1.68 1.72
0.92 1.00 1.04 1.19 1.34 1.52 1.71 1.86 1.89 1.90 1.92 1.91 1.84 1.95 2.07 2.16 2.28 2.30 2.30 2.19 2.05 1.98 1.90 1.76 1.57 1.46 1.59 1.60 1.51 1.45 1.32 1.25 1.25 1.23 1.11 1.05 0.99 0.88 0.94 1.04 1.26 1.41 1.48
0.74 0.81 0.94 1.14 1.25 1.34 1.39 1.47 1.55 1.62 1.67 1.73 1.72 1.69 1.76 1.86 2.02 2.17 2.26 2.21 2.20 2.08 1.99 1.99 1.83 1.59 1.49 1.56 1.59 1.66 1.56 1.32 1.28 1.37 1.30 1.20 1.12 0.98 0.89 0.93 1.02 1.08 1.13
0.72 0.76 0.89 1.04 1.10 1.15 1.18 1.20 1.31 1.41 1.43 1.44 1.50 1.47 1.47 1.55 1.70 1.85 1.95 2.02 2.14 2.16 2.17 2.10 2.04 1.87 1.63 1.62 1.67 1.68 1.69 1.73 1.50 1.41 1.41 1.35 1.27 1.16 1.08 0.98 0.94 0.96 0.93
0.78 0.80 0.95 1.03 1.05 1.02 1.11 1.14 1.20 1.23 1.19 1.15 1.19 1.19 1.22 1.27 1.37 1.52 1.67 1.88 2.06 2.15 2.22 2.20 2.11 1.90 1.74 1.71 1.68 1.69 1.77 1.84 1.81 1.57 1.46 1.39 1.42 1.37 1.21 1.11 1.03 1.00 1.00
0.82 0.84 0.88 0.99 1.02 1.00 1.05 1.12 1.10 1.03 1.03 1.02 0.96 0.86 0.88 0.96 1.00 1.10 1.14 1.43 1.68 1.90 2.02 2.08 2.06 1.92 1.72 1.63 1.50 1.53 1.66 1.83 1.90 1.85 1.76 1.48 1.41 1.36 1.31 1.25 1.16 1.08 1.04
0.70 0.72 0.77 0.93 1.03 0.91 1.02 1.01 0.93 0.86 0.83 0.88 0.85 0.77 0.74 0.79 0.73 0.70 0.74 0.96 1.25 1.44 1.62 1.80 1.87 1.75 1.61 1.55 1.60 1.59 1.59 1.64 1.67 1.60 1.59 1.60 1.51 1.43 1.36 1.29 1.29 1.26 1.18
0.62 0.65 0.67 0.82 0.91 0.97 0.91 0.76 0.81 0.80 0.81 0.85 0.87 0.89 0.80 0.75 0.85 0.75 0.69 0.76 0.84 0.95 1.11 1.38 1.61 1.60 1.70 1.63 1.54 1.49 1.51 1.55 1.54 1.59 1.59 1.59 1.49 1.40 1.30 1.27 1.40 1.31 1.31
0.59 0.61 0.63 0.65 0.73 0.87 0.81 0.66 0.70 0.69 0.80 0.89 0.92 1.00 1.00 0.94 0.92 0.99 0.92 0.93 0.90 0.83 0.91 0.83 1.03 1.41 1.56 1.62 1.58 1.62 1.72 1.66 1.52 1.54 1.55 1.57 1.49 1.38 1.25 1.17 1.27 1.18 1.12
0.62 0.61 0.63 0.64 0.69 0.74 0.72 0.65 0.67 0.72 0.85 0.88 0.84 0.96 1.00 0.95 1.01 1.06 1.17 1.23 1.15 1.00 1.11 1.11 1.02 1.13 1.28 1.34 1.45 1.56 1.63 1.57 1.52 1.43 1.31 1.28 1.24 1.28 1.32 1.23 1.19 1.23 1.14
0.61 0.62 0.59 0.56 0.59 0.60 0.67 0.59 0.69 0.79 0.84 0.85 0.86 0.92 1.07 1.00 0.98 0.95 1.03 1.17 1.16 1.02 0.90 0.93 0.90 0.80 0.74 0.85 1.05 1.23 1.52 1.64 1.59 1.49 1.29 1.22 1.25 1.23 1.26 1.18 1.08 1.10 1.10